Location: McMath-Hulbert Observatory
(42.6964°N, 83.3187°W)
Time: 18:20:34
(UTC-04:00)

Daily predictions for brighter satellites

Satellite Brightness Start Highest point End
(mag) Time Altitude Azimuth Time Altitude Azimuth Time Altitude Azimuth
In-Cosmos 22 Rocket 4.4 21:23:46 10° S 21:29:37 89° W 21:35:27 10° N
SJ-11-01 4.4 21:25:51 10° SSE 21:30:33 64° ENE 21:35:15 10° N
NOSS 2-2 (E) 3.8 21:28:25 10° SSW 21:32:23 47° ESE 21:36:59 10° NE
Cosmos 1461 3.3 21:28:17 10° SW 21:32:58 82° WNW 21:37:32 10° NNE
Meteor 2-10 Rocket 3.9 21:27:23 10° N 21:33:12 67° ENE 21:38:53 10° SSE
SPOT 5 3.9 21:29:56 10° SE 21:34:39 35° ENE 21:39:29 10° N
ERBS 2.6 21:31:16 10° NW 21:34:43 62° NE 21:38:08 10° ESE
ALOS 3.3 21:30:32 10° S 21:35:03 47° W 21:39:34 10° NNW
Cosmos 1674 Rocket 4.2 21:32:41 10° N 21:36:54 39° ENE 21:41:04 10° SSE
Cosmos 1606 4.2 21:34:52 10° NNE 21:38:00 22° ENE 21:41:06 10° SE
Cosmos 407 Rocket 4.2 21:34:58 10° N 21:39:53 39° ENE 21:44:50 10° SE
Cosmos 1892 2.6 21:42:13 10° S 21:46:01 79° E 21:49:53 10° N
H-2A R/B 4.5 21:45:18 10° SSW 21:48:37 31° W 21:51:58 10° NNW
ERS-1 Rocket 3.0 21:44:24 10° SSE 21:49:26 87° WSW 21:54:30 10° NNW
Cosmos 909 Rocket 4.3 21:44:45 10° SSW 21:51:12 77° ESE 21:59:01 10° NE
OPS 6432 4.4 21:48:02 10° SSW 21:51:26 51° ESE 21:54:29 10° NE
Cosmos 1190 Rocket 4.2 21:46:27 10° NNW 21:51:37 59° ENE 21:56:41 10° SSE
PSLV R/B 3.8 21:52:39 10° W 21:55:59 46° SSW 21:58:46 14° ESE
Meteor 2-6 Rocket 4.4 21:50:41 10° N 21:56:38 67° ENE 22:02:27 10° SSE
Abrixas rocket 4.1 21:58:36 10° W 22:01:20 22° SW 22:04:01 10° SSE
Coronas F rocket 2.1 21:59:32 10° SSW 22:02:07 50° W 22:04:43 10° N
Cosmos 1975 Rocket 4.3 22:01:32 10° NNE 22:05:09 25° ENE 22:07:45 15° ESE
USA 234 4.1 22:01:13 10° ENE 22:06:27 25° SE 22:11:39 10° S
Cosmos 2154 Rocket 4.2 22:01:13 10° SSE 22:07:12 53° E 22:13:13 10° NNE
deb Chang Zheng 4 3.6 22:04:46 10° NNE 22:09:12 87° E 22:13:38 10° SSW
BREEZE-M DEB (TANK) 3.2 22:07:17 10° WSW 22:09:48 63° NNW 22:15:35 10° ENE
CZ-4B R/B 4.2 22:06:01 10° NE 22:10:27 31° E 22:13:59 14° SSE
SL-8 R/B 3.6 22:07:16 10° WSW 22:12:07 84° SSE 22:16:56 10° ENE
MetOp-B 4.3 22:07:40 12° SSE 22:12:32 62° ENE 22:17:49 10° N
Cosmos 2184 Rocket 4.3 22:08:09 10° SSW 22:14:16 71° W 22:20:28 10° N
COSMOS 2406 3.5 22:09:03 10° NNW 22:14:45 66° WSW 22:20:21 10° SSE
Cosmos 1908 Rocket 3.7 22:11:06 10° S 22:15:23 56° E 22:19:45 10° NNE
Cosmos 1733 Rocket 3.8 22:16:11 10° SSW 22:20:31 55° W 22:24:51 10° N
USA 245 3.6 22:19:18 22° SE 22:20:51 38° ENE 22:24:19 10° N
Cosmos 1378 Rocket 3.6 22:17:04 10° N 22:21:18 57° E 22:24:19 19° SSE
Cosmos 676 Rocket 4.1 22:16:23 10° NNW 22:21:33 65° ENE 22:25:21 19° SSE
EO 1 Delta rocket 4.4 22:16:15 10° N 22:22:55 89° E 22:28:10 10° S
ATLAS 5 CENTAUR R/B 2.9 22:17:28 10° NW 22:23:23 58° WSW 22:28:52 14° SSE
ARGOS 3.6 22:19:51 17° SE 22:23:41 48° ENE 22:28:49 10° N
Cosmos 2056 Rocket 3.9 22:19:36 10° SSW 22:24:44 64° WNW 22:29:51 10° NNE
CZ-3C R/B 4.3 22:12:27 10° SW 22:25:52 17° SSW 22:30:49 12° SSE
Cosmos 1184 Rocket 3.6 22:24:38 25° SE 22:25:53 34° E 22:28:57 10° NNE
Cosmos 1174 3.4 22:25:02 10° NNW 22:28:19 56° NE 22:29:37 29° ESE
Cosmos 1954 Rocket 4.2 22:23:23 10° NNW 22:28:32 58° ENE 22:31:54 21° SE
MINOTAUR IV R/B 4.5 22:24:57 10° SSW 22:29:25 79° ESE 22:33:55 10° NNE
Cosmos 1862 3.3 22:28:46 13° S 22:32:24 74° E 22:36:29 10° NNE
Cosmos 2278 Rocket 2.4 22:28:22 10° S 22:33:46 48° ESE 22:39:13 10° NE
Cosmos 1844 3.7 22:31:01 10° SSW 22:36:45 77° ESE 22:42:34 10° NNE
CENTAUR R/B 3.9 22:29:21 10° NW 22:36:46 45° WSW 22:44:20 11° S
Cosmos 1833 Rocket 4.3 22:33:11 10° N 22:37:33 22° NE 22:40:56 14° E
SL-27 R/B 3.8 22:36:43 10° NW 22:40:07 36° WSW 22:42:44 15° SSW
Cosmos 1825 2.1 22:37:57 18° S 22:40:43 80° E 22:44:34 10° N
Cosmos 2084 3.5 22:37:52 13° S 22:41:02 42° ESE 22:44:41 10° NE
COSMOS 2487 2.7 22:39:57 10° N 22:43:32 57° ENE 22:44:48 35° SE
COS B Rocket 3.9 22:39:46 10° N 22:43:58 59° W 22:47:18 13° SSW
Cosmos 1844 Rocket 3.0 22:39:06 10° SSW 22:44:45 70° WNW 22:50:24 10° NNE
H-2A R/B 3.6 22:41:47 10° SSW 22:45:42 32° W 22:49:33 10° NNW
APEX 4.2 22:50:10 29° ESE 22:50:23 29° ESE 22:54:28 10° NE
CZ-4 SHROUD 4.3 22:50:15 21° SSW 22:51:53 38° W 22:54:49 10° NNW
Cosmos 2082 Rocket 3.2 22:47:21 10° N 22:52:33 35° NE 22:55:25 22° ESE
CZ-4C R/B 3.8 22:51:49 33° ESE 22:52:58 43° ENE 22:56:47 10° N
YAOGAN 6 3.2 22:52:00 23° SSW 22:53:56 49° W 22:57:22 10° NNW
Cosmos 1408 2.9 22:52:39 18° SSW 22:55:16 66° W 22:58:55 10° N
Meteor 1-27 Rocket 4.3 22:50:55 10° NNW 22:56:21 55° W 23:00:52 15° SSW
Cosmos 2218 Rocket 4.2 22:59:14 25° SSE 23:02:51 57° E 23:09:07 10° NNE
Cosmos 1023 Rocket 4.4 22:58:11 10° NNW 23:03:19 79° ENE 23:05:34 34° SSE
Cosmos 2297 4.0 23:02:58 30° SSE 23:05:15 44° ESE 23:10:40 10° NE
Okean 2 Rocket 3.0 23:02:50 24° S 23:05:30 84° W 23:09:57 10° N
Landsat 7 3.8 23:05:01 36° SSE 23:06:56 71° ENE 23:11:41 10° N
H-2A R/B 2.3 23:05:40 33° SE 23:08:05 62° ENE 23:13:22 10° N
Cosmos 1238 Rocket 3.6 23:06:19 10° NNW 23:09:14 36° W 23:10:41 24° SW
Cosmos 1242 Rocket 2.5 23:06:11 10° NNW 23:09:50 82° W 23:10:42 51° S
DELTA 2 DEB (DPAF) 4.1 23:09:30 40° SSE 23:11:03 76° ENE 23:15:32 10° N
Cosmos 1420 Rocket 3.9 23:08:59 21° S 23:12:30 77° ESE 23:17:45 10° NNE
BREEZE-M DEB 4.1 23:12:17 10° WSW 23:16:06 79° NNW 23:16:22 70° NNE
Cosmos 1727 Rocket 4.1 23:13:13 10° N 23:19:19 59° E 23:21:45 36° SE
Terra 1.8 23:21:17 45° SE 23:22:41 71° ENE 23:27:27 10° N
Spot 4 4.1 23:21:25 41° ESE 23:22:45 54° ENE 23:27:29 10° N
SPOT 1/Viking Rocket 4.4 23:20:10 21° SSW 23:23:18 44° W 23:28:17 10° NNW
ASTEX 1 4.0 23:20:36 10° NNE 23:25:12 38° E 23:25:46 37° ESE
IGS 5A 3.4 23:25:17 56° SE 23:25:58 69° ENE 23:30:07 10° N
Cosmos 1959 Rocket 4.4 23:22:49 28° S 23:26:14 85° E 23:32:22 10° N
Timation 2 Rocket 3.9 23:26:46 10° NNW 23:32:46 75° WSW 23:35:01 40° S
Cosmos 614 Rocket 3.8 23:27:56 10° NNW 23:33:03 86° WSW 23:34:27 49° SSE
Okean 1 4.1 23:30:54 10° N 23:34:40 38° ENE 23:34:40 38° ENE
Cosmos 1140 Rocket 3.9 23:31:10 10° NNW 23:36:10 53° WSW 23:37:57 36° SSW
SAR-Lupe-2 3.7 23:36:53 61° NE 23:36:53 61° NE 23:40:13 10° N
DNEPR-1 R/B 3.8 23:34:51 10° NW 23:40:14 68° WSW 23:41:08 54° S
BREEZE-M DEB (TANK) 3.9 23:42:00 10° NW 23:44:03 25° N 23:47:51 10° ENE
Cosmos 2369 Rocket 4.4 23:46:18 11° E 23:46:18 11° E 23:46:52 10° ENE
Meteor 1-20 Rocket 4.2 23:43:42 49° SSE 23:45:02 65° E 23:50:32 10° NNE
CARTOSAT-1 3.8 23:44:45 53° SSW 23:45:29 62° W 23:49:47 10° NNW
SL-8 Rocket 4.5 23:41:38 19° SSW 23:46:06 57° W 23:52:16 10° N
Cosmos 1339 Rocket 4.4 23:42:01 10° N 23:48:11 82° E 23:50:09 46° SSE
Meteor 1-25 Rocket 4.2 23:47:59 44° S 23:49:57 84° E 23:55:49 10° NNE
USA 234 3.2 23:43:23 10° NE 23:49:58 89° NW 23:56:30 10° SW
DMSP B5D2-2 4.2 23:49:28 10° N 23:54:41 72° WNW 23:56:39 38° SSW
